"TOA5","AWS1","CR1000","7964","CR1000.Std.14","CPU:AWS1_114.CR1","64363","TBL110"
"TIMESTAMP","RECORD","Wind_spd_WVc(1)","Wind_spd_WVc(2)","Air_Temp_Avg","Humidity_Avg","SW_upper_Wm2_Avg","Rain_Tot","Press_Avg","Issui_Tot","Depth_cm","SR50A_Raw","Quality","Ground_Temp_Avg(1)","Ground_Temp_Avg(2)","SW_lower_Wm2_Avg","Albedo_Avg","SWC_per(1)","SWC_per(2)","Period(1)","Period(2)"
"TS","RN","","","","","","","","","","","","","","","","","","",""
"","","WVc","WVc","Avg","Avg","Avg","Tot","Avg","Tot","Smp","Smp","Smp","Avg","Avg","Avg","Avg","Smp","Smp","Smp","Smp"
"2016-08-25 00:00:00",250189,0.22,170.7,17.13,100,0,0,865.3762,0,-4.202,3.126,203,22.41,22.05,0.3069528,0,48.65,55.72,32.96,34.68
"2016-08-25 00:10:00",250190,0.158,170.8,17.05,100,0,0,865.1677,0,-4.535,3.129,195,22.34,22.05,0.2387411,0,48.7,55.72,32.97,34.68
"2016-08-25 00:20:00",250191,0.048,160.4,17.15,100,0,0,865.016,0,-4.401,3.127,182,22.35,22.03,0.5797998,0,48.7,55.72,32.97,34.68
"2016-08-25 00:30:00",250192,0.015,155.1,17.34,100,0,0,864.8791,0,-4.656,3.129,203,22.39,22.04,0.5343253,0,48.65,55.66,32.96,34.67
"2016-08-25 00:40:00",250193,0.1,175.3,17.29,100,0,0,864.8812,0,-4.868,3.132,199,22.29,22.04,0.5040089,0,48.65,55.72,32.96,34.68
"2016-08-25 00:50:00",250194,0,0,17.16,100,0,0,864.8791,0,-5.408,3.137,193,22.24,22.01,0.5456939,0,48.65,55.72,32.96,34.68
"2016-08-25 01:00:00",250195,0,0,16.91,100,0,0,864.8791,0,-5.033,3.135,193,22.32,21.98,0.3107423,0,48.7,55.66,32.97,34.67
"2016-08-25 01:10:00",250196,0,0,16.94,100,0,0,864.
"2016-08-25 01:10:00",250196,0,0,16.94,100,0,0,864.8791,0,-4.566,3.13,194,22.22,21.94,0.6328533,0,48.65,55.66,32.96,34.67
"2016-08-25 01:20:00",250197,0.059,146.8,16.86,100,0,0,864.8791,0,-5.045,3.137,198,22.15,21.94,0.5381148,0,48.7,55.66,32.97,34.67
"2016-08-25 01:30:00",250198,0.178,209.7,16.59,100,0,0,865.0034,0,-5.008,3.135,194,22.19,21.94,0.5153776,0,48.65,55.66,32.96,34.67
"2016-08-25 01:40:00",250199,0.02,200.5,16.62,100,0,0,865.1318,0,-4.832,3.134,196,22.17,21.93,0.4471658,0,48.7,55.66,32.97,34.67
"2016-08-25 01:50:00",250200,0.304,198.9,16.66,100,0,0,865.1298,0,-4.833,3.134,196,22.06,21.94,0.5987474,0,48.65,55.66,32.96,34.67
"2016-08-25 02:00:00",250201,0.148,191.5,16.76,100,0,0,865.0665,0,-4.929,3.134,200,22.11,21.96,0.6214847,0,48.65,55.72,32.96,34.68
"2016-08-25 02:10:00",250202,0.115,192.7,16.83,100,0,0,864.9212,0,-4.572,3.131,204,22.07,21.97,0.6366429,0,48.65,55.72,32.96,34.68
"2016-08-25 02:20:00",250203,0.091,199.6,16.68,100,0,0,864.8791,0,-4.42,3.13,206,21.99,21.97,0.3789541,0,48.7,55.66,32.97,34.67
"2016-08-25 02:30:00",250204,0.037,213.1,17.02,100,0,0,864.8834,0,-4.195,3.125,219,22,21.97,1.106546,0,48.7,55.66,32.97,34.67
"2016-08-25 02:40:00",250205,0,0,16.94,100,0,0,864.8791,0,-4.015,3.127,217,22.05,21.97,0.4585344,0,48.65,55.66,32.96,34.67
"2016-08-25 02:50:00",250206,0,0,16.62,100,0,0,864.8117,0,-4.372,3.13,205,21.96,21.97,0.4282182,0,48.65,55.66,32.96,34.67
"2016-08-25 03:00:00",250207,0.064,227.1,16.8,100,0,0,864.6833,0,-4.142,3.128,198,21.93,21.97,0.7920141,0,48.65,55.66,32.96,34.67
"2016-08-25 03:10:00",250208,0.153,168,16.43,100,0,0,864.6263,0,-4.245,3.129,202,21.97,21.94,0.3600064,0,48.65,55.66,32.96,34.67
"2016-08-25 03:20:00",250209,0.139,78.03,16.73,100,0,0,864.6263,0,-4.129,3.126,193,21.87,21.91,1.015597,0,48.7,55.66,32.97,34.67
"2016-08-25 03:30:00",250210,0.054,105.8,16.91,100,0,0,864.6263,0,-4.208,3.127,208,21.81,21.89,0.74275,0,48.7,55.66,32.97,34.67
"2016-08-25 03:40:00",250211,0.022,136.2,16.78,100,0,0,864.6263,0,-4.112,3.127,204,21.88,21.86,0.5267462,0,48.7,55.66,32.97,34.67
"2016-08-25 03:50:00",250212,0.011,138.4,16.78,100,0,0,864.6327,0,-4.827,3.133,209,21.81,21.85,0.7579082,0,48.7,55.66,32.97,34.67
"2016-08-25 04:00:00",250213,0.086,136.6,16.65,100,0,0,864.7864,0,-4.948,3.137,199,21.72,21.86,0.5873788,0,48.65,55.66,32.96,34.67
"2016-08-25 04:10:00",250214,0.325,181.9,16.28,100,0,0,864.877,0,-4.844,3.136,192,21.76,21.88,0.3410587,0,48.7,55.66,32.97,34.67
"2016-08-25 04:20:00",250215,0.059,143.9,16.32,100,0,0,864.8011,0,-4.427,3.131,202,21.74,21.89,0.4774822,0,48.7,55.6,32.97,34.65
"2016-08-25 04:30:00",250216,0.033,107.1,16.9,100,0,0,864.6306,0,-4.662,3.13,195,21.68,21.88,1.026966,0,48.7,55.66,32.97,34.67
"2016-08-25 04:40:00",250217,0.114,73.98,17.21,100,0,0,864.6917,0,-4.601,3.128,200,21.64,21.88,1.049703,0,48.65,55.6,32.96,34.65
"2016-08-25 04:50:00",250218,0.163,37.99,17.61,99.6,0.02751198,0,864.7022,0,-4.69,3.127,201,21.71,21.88,1.4855,0.787,48.7,55.66,32.97,34.67
"2016-08-25 05:00:00",250219,0.15,123.7,17.4,99.9,0,0,864.8412,0,-4.844,3.132,197,21.7,21.89,1.008018,0,48.7,55.6,32.97,34.65
"2016-08-25 05:10:00",250220,0.04,127.5,17.04,100,0,0,864.8644,0,-4.837,3.131,198,21.63,21.85,0.7768559,0,48.7,55.6,32.97,34.65
"2016-08-25 05:20:00",250221,0.212,325.2,17.37,100,0.9471983,0,864.8896,0,-4.497,3.127,200,21.56,21.8,1.186126,2.033,48.7,55.6,32.97,34.65
"2016-08-25 05:30:00",250222,0.059,350.1,17.42,100,3.018458,0,865.0771,0,-4.958,3.131,201,21.62,21.8,1.23918,0.439,48.65,55.6,32.96,34.65
"2016-08-25 05:40:00",250223,0.04,0.596,17.32,100,7.730867,0,865.1277,0,-4.869,3.132,202,21.62,21.79,1.561291,0.211,48.65,55.6,32.96,34.65
"2016-08-25 05:50:00",250224,0.241,122.6,17.13,100,14.27086,0,865.1318,0,-4.892,3.132,193,21.54,21.73,2.296462,0.161,48.65,55.66,32.96,34.67
"2016-08-25 06:00:00",250225,0.387,97.3,17.28,100,25.88878,0,865.1318,0,-4.237,3.124,201,21.46,21.71,4.21018,0.162,48.7,55.6,32.97,34.65
"2016-08-25 06:10:00",250226,0.083,108.4,17.57,100,36.23328,0,865.1318,0,-4.515,3.126,199,21.46,21.72,5.494834,0.152,48.65,55.6,32.96,34.65
"2016-08-25 06:20:00",250227,0.075,132.5,17.55,100,48.48397,0,865.1255,0,-3.714,3.118,189,21.49,21.75,6.965177,0.143,48.7,55.6,32.97,34.65
"2016-08-25 06:30:00",250228,0,0,17.98,97.4,64.21297,0,865.1024,0,-3.63,3.113,200,21.5,21.76,9.886912,0.154,48.7,55.6,32.97,34.65
"2016-08-25 06:40:00",250229,0.007,109.6,18.49,91.5,71.75518,0,865.0919,0,-3.519,3.111,194,21.49,21.78,11.15262,0.156,48.65,55.6,32.96,34.65
"2016-08-25 06:50:00",250230,0,0,18.58,93.7,103.7005,0,864.9697,0,-3.097,3.106,198,21.49,21.78,15.31353,0.148,48.65,55.6,32.96,34.65
"2016-08-25 07:00:00",250231,0.085,325.3,18.76,90.9,122.8331,0,864.8854,0,-3.344,3.11,200,21.46,21.77,18.20495,0.148,48.65,55.6,32.96,34.65
"2016-08-25 07:10:00",250232,0.012,49.5,18.85,89.2,123.3362,0,864.8834,0,-3.806,3.111,200,21.39,21.77,17.73505,0.144,48.7,55.6,32.97,34.65
"2016-08-25 07:20:00",250233,0.122,139.1,19.08,89.1,124.1734,0,864.8791,0,-4.117,3.114,176,21.35,21.74,16.85588,0.136,48.65,55.55,32.96,34.64
"2016-08-25 07:30:00",250234,0.319,127.9,18.85,93.7,126.3822,0,864.8791,0,-4.028,3.115,201,21.33,21.71,16.3784,0.129,48.65,55.6,32.96,34.65
"2016-08-25 07:40:00",250235,0.193,130.1,18.81,93.2,150.3412,0,864.797,0,-4.379,3.117,197,21.34,21.69,19.85719,0.132,48.65,55.6,32.96,34.65
"2016-08-25 07:50:00",250236,0.139,42.57,19.24,86.2,181.8857,0,864.877,0,-3.974,3.111,198,21.36,21.67,24.74191,0.136,48.65,55.6,32.96,34.65
"2016-08-25 08:00:00",250237,0.019,74.81,19.6,83.6,244.5855,0,864.9002,0,-4.611,3.116,176,21.41,21.63,33.60186,0.137,48.65,55.6,32.96,34.65
"2016-08-25 08:10:00",250238,0.053,122.7,19.86,82.1,267.1689,0,864.9781,0,-3.663,3.105,196,21.44,21.61,35.76948,0.134,48.7,55.6,32.97,34.65
"2016-08-25 08:20:00",250239,0.074,239.3,20.12,83,276.1496,0,864.8939,0,-4.499,3.111,190,21.45,21.59,37.03518,0.134,48.7,55.55,32.97,34.64
"2016-08-25 08:30:00",250240,0.244,352.1,20.2,81.8,426.1174,0,864.8791,0,-3.99,3.107,192,21.45,21.59,55.66835,0.132,48.7,55.6,32.97,34.65
"2016-08-25 08:40:00",250241,0.293,260.4,20.42,82.7,287.1858,0,864.8777,0,-4.109,3.107,188,21.44,21.6,38.28194,0.134,48.7,55.6,32.97,34.65
"2016-08-25 08:50:00",250242,0.196,7.695,20.14,82.5,263.7102,0,864.9004,0,-3.83,3.105,194,21.41,21.62,34.45072,0.13,48.65,55.6,32.96,34.65
"2016-08-25 09:00:00",250243,0.398,17.07,20.23,80.5,317.2289,0,864.9954,0,-4.405,3.111,187,21.41,21.63,41.25673,0.131,48.65,55.6,32.96,34.65
"2016-08-25 09:10:00",250244,0.133,139.3,20.79,79.37,708.8856,0,864.9535,0,-3.954,3.1,226,21.41,21.63,75.56724,0.109,48.65,55.55,32.96,34.64
"2016-08-25 09:20:00",250245,0.273,355.8,21.5,74.56,806.0343,0,864.8608,0,-4.705,3.107,193,21.5,21.59,73.21014,0.091,48.7,55.55,32.97,34.64
"2016-08-25 09:30:00",250246,0.426,9.3,21.66,73.31,845.1522,0,864.8108,0,-4.328,3.102,192,21.51,21.58,74.17646,0.088,48.65,55.55,32.96,34.64
"2016-08-25 09:40:00",250247,0.423,34.51,22.27,73.03,768.9337,0,864.6297,0,-4.932,3.106,181,21.49,21.52,79.91653,0.103,48.65,55.55,32.96,34.64
"2016-08-25 09:50:00",250248,0.105,251.8,21.63,77.37,236.5076,0,864.6545,0,-4.72,3.109,194,21.48,21.52,25.0597,0.105,48.65,55.55,32.96,34.64
"2016-08-25 10:00:00",250249,0.226,300.9,20.82,81.8,362.1172,0,864.7977,0,-4.578,3.109,184,21.5,21.55,44.4168,0.121,48.65,55.55,32.96,34.64
"2016-08-25 10:10:00",250250,0.3,63.39,21.31,81.2,578.9603,0,864.7687,0,-4.593,3.105,185,21.52,21.53,72.6339,0.124,48.59,55.55,32.95,34.64
"2016-08-25 10:20:00",250251,0.328,144.8,21.8,80.2,500.58,0,864.5887,0,-4.809,3.108,201,21.57,21.55,60.28774,0.115,48.65,55.55,32.96,34.64
"2016-08-25 10:30:00",250252,0.174,306,21.24,81.9,411.6264,0,864.5748,0,-2.788,3.089,200,21.54,21.5,53.82285,0.127,48.59,55.55,32.95,34.64
"2016-08-25 10:40:00",250253,0.192,346.7,21.74,78.58,497.6525,0,864.5756,0,-3.411,3.095,196,21.53,21.5,61.7771,0.113,48.59,55.55,32.95,34.64
"2016-08-25 10:50:00",250254,0.111,296.5,21.07,83.2,182.5302,0,864.5862,0,-4.404,3.108,181,21.61,21.51,19.2016,0.102,48.59,55.49,32.95,34.63
"2016-08-25 11:00:00",250255,0.14,321.1,20.88,85.2,460.1576,0,864.5908,0,-4.45,3.105,192,21.66,21.48,65.30516,0.14,48.59,55.49,32.95,34.63
"2016-08-25 11:10:00",250256,0.463,352.3,21.57,80.2,621.3385,0,864.5864,0,-3.625,3.095,186,21.66,21.5,85.62089,0.13,48.54,55.49,32.93,34.63
"2016-08-25 11:20:00",250257,0.579,48.37,21.82,77.99,637.7789,0,864.5112,0,-3.545,3.094,192,21.72,21.47,86.24238,0.125,48.59,55.49,32.95,34.63
"2016-08-25 11:30:00",250258,0.557,9.3,22.11,77.14,733.328,0,864.3328,0,-3.763,3.092,194,21.74,21.46,103.6932,0.135,48.54,55.49,32.93,34.63
"2016-08-25 11:40:00",250259,0.294,177.7,22.33,78.27,222.6113,0,864.3353,0,-4.585,3.104,197,21.85,21.44,22.33176,0.101,48.59,55.43,32.95,34.61
"2016-08-25 11:50:00",250260,0.249,297,21.5,79.41,248.1424,0,864.3094,0,-4.259,3.105,190,21.85,21.43,30.93781,0.12,48.54,55.49,32.93,34.63
"2016-08-25 12:00:00",250261,0.389,326.1,21.41,80.4,475.3246,0,864.0988,0,-3.697,3.095,189,21.89,21.4,65.82053,0.134,48.54,55.49,32.93,34.63
"2016-08-25 12:10:00",250262,0.249,129.3,21.68,79.73,161.8333,0,864.0911,0,-3.723,3.098,198,21.89,21.41,16.51482,0.1,48.48,55.43,32.92,34.61
"2016-08-25 12:20:00",250263,0.055,319.3,21.32,83.7,157.9031,0,864.0928,0,-3.681,3.096,198,22.01,21.41,19.34561,0.121,48.54,55.43,32.93,34.61
"2016-08-25 12:30:00",250264,0.104,40.61,21.71,81.7,262.5429,0,863.9948,0,-3.667,3.097,206,22.05,21.38,35.51937,0.133,48.48,55.43,32.92,34.61
"2016-08-25 12:40:00",250265,0.222,340.4,21.37,82.7,228.1765,0,863.8729,0,-3.845,3.101,204,22.09,21.38,29.77442,0.125,48.48,55.43,32.92,34.61
"2016-08-25 12:50:00",250266,0.186,298,21.28,84.6,469.7121,0,863.8597,0,-1.986,3.079,193,22.12,21.38,73.32761,0.146,48.48,55.43,32.92,34.61
"2016-08-25 13:00:00",250267,0.216,296.5,22.33,79.94,469.5981,0,863.8609,0,-4.878,3.105,180,22.16,21.43,65.25211,0.114,48.48,55.43,32.92,34.61
"2016-08-25 13:10:00",250268,0.114,300.1,21.78,82.9,206.784,0,863.8383,0,-2.94,3.09,226,22.19,21.44,23.55958,0.113,48.48,55.43,32.92,34.61
"2016-08-25 13:20:00",250269,0.09,279,21.7,82.6,228.1215,0,863.8381,0,-3.224,3.09,229,22.24,21.43,28.37229,0.124,48.43,55.43,32.9,34.61
"2016-08-25 13:30:00",250270,0.189,322.6,21.93,80.5,330.5919,0,863.8107,0,-3.663,3.094,227,22.22,21.4,46.55072,0.13,48.43,55.43,32.9,34.61
"2016-08-25 13:40:00",250271,0.524,320.3,22.26,77.05,504.672,0,863.5957,0,-3.631,3.093,195,22.28,21.44,72.05054,0.135,48.43,55.43,32.9,34.61
"2016-08-25 13:50:00",250272,0.303,32.73,22.19,77.4,286.8832,0,863.398,0,-2.591,3.083,227,22.35,21.46,36.22043,0.125,48.43,55.37,32.9,34.6
"2016-08-25 14:00:00",250273,0.056,55.24,22.18,78.38,137.2927,0,863.3304,0,-3.224,3.09,202,22.33,21.45,16.83693,0.123,48.43,55.37,32.9,34.6
"2016-08-25 14:10:00",250274,0.358,124.1,21.64,82.5,175.7819,0,863.3323,0,-3.035,3.09,222,22.39,21.45,24.2038,0.137,48.43,55.37,32.9,34.6
"2016-08-25 14:20:00",250275,0.333,70.29,21.95,80.2,163.3544,0,863.341,0,-2.926,3.086,202,22.43,21.45,22.72209,0.138,48.43,55.37,32.9,34.6
"2016-08-25 14:30:00",250276,0.12,69.77,22.23,78.92,170.311,0,863.2986,0,-2.591,3.083,196,22.43,21.48,23.32841,0.137,48.38,55.43,32.89,34.61
"2016-08-25 14:40:00",250277,0.188,115.9,22.66,77.73,591.9046,0,863.1649,0,-2.334,3.076,200,22.5,21.49,63.29291,0.118,48.38,55.37,32.89,34.6
"2016-08-25 14:50:00",250278,0.382,352.8,23.59,74.14,721.0498,0,863.076,0,-3.232,3.081,201,22.52,21.49,73.05098,0.113,48.38,55.37,32.89,34.6
"2016-08-25 15:00:00",250279,0.568,313,23.47,72.8,492.099,0,862.9783,0,-3.04,3.083,187,22.54,21.49,36.35686,0.095,48.38,55.37,32.89,34.6
"2016-08-25 15:10:00",250280,0.251,96,23.04,74.56,226.7381,0,862.9565,0,-2.173,3.074,228,22.55,21.48,32.74921,0.142,48.38,55.32,32.89,34.59
"2016-08-25 15:20:00",250281,0.325,300.9,23.18,73.57,283.0236,0,862.8344,0,-2.486,3.077,189,22.58,21.49,41.93885,0.148,48.38,55.32,32.89,34.59
"2016-08-25 15:30:00",250282,0.356,326.6,23.1,73.13,264.8736,0,862.8289,0,-1.928,3.073,184,22.65,21.5,39.17627,0.148,48.32,55.32,32.88,34.59
"2016-08-25 15:40:00",250283,0.392,295.3,23.17,74.16,214.9,0,862.8272,0,-2.348,3.075,185,22.68,21.49,31.55551,0.147,48.32,55.32,32.88,34.59
"2016-08-25 15:50:00",250284,0.402,13.95,23.19,73.07,230.8295,0,862.8366,0,-2.391,3.077,194,22.72,21.52,33.65112,0.146,48.27,55.32,32.86,34.59
"2016-08-25 16:00:00",250285,0.095,42.33,23.09,75.45,186.5509,0,862.8366,0,-2.741,3.079,194,22.77,21.52,27.09522,0.145,48.27,55.32,32.86,34.59
"2016-08-25 16:10:00",250286,0.347,146.3,23.3,74.72,151.2805,0,862.8453,0,-2.656,3.08,194,22.81,21.5,20.97511,0.137,48.27,55.26,32.86,34.57
"2016-08-25 16:20:00",250287,0.543,159.5,22.58,77.06,145.3655,0,862.8483,0,-2.572,3.081,188,22.85,21.5,19.59951,0.135,48.27,55.26,32.86,34.57
"2016-08-25 16:30:00",250288,0.348,144.7,22.43,78.22,151.2294,0,862.8397,0,-2.628,3.082,185,22.89,21.51,21.23659,0.14,48.27,55.32,32.86,34.59
"2016-08-25 16:40:00",250289,0.536,145,22.42,79.21,180.6516,0,862.8459,0,-2.695,3.084,189,22.95,21.56,26.21604,0.144,48.27,55.26,32.86,34.57
"2016-08-25 16:50:00",250290,0.252,107.1,22.13,80.8,66.93666,0,862.8611,0,-2.903,3.086,189,22.93,21.59,7.400973,0.109,48.27,55.32,32.86,34.59
"2016-08-25 17:00:00",250291,0.241,102.1,21.89,81.2,37.35341,0,862.9518,0,-2.732,3.088,190,22.93,21.62,3.122582,0.08,48.16,55.26,32.84,34.57
"2016-08-25 17:10:00",250292,0.077,140,21.51,82.6,33.50174,0,863.0883,0,-2.732,3.088,195,22.97,21.63,4.570186,0.129,48.27,55.32,32.86,34.59
"2016-08-25 17:20:00",250293,0.223,113.2,21.77,83.4,148.549,0,863.0801,0,-2.903,3.086,189,23.05,21.62,24.67749,0.166,48.21,55.32,32.85,34.59
"2016-08-25 17:30:00",250294,0.166,116.2,22.27,82.5,168.1572,0,863.103,0,-2.638,3.083,195,23.04,21.59,27.09143,0.16,48.21,55.32,32.85,34.59
"2016-08-25 17:40:00",250295,0.102,47.45,22.04,85.3,87.37806,0,863.0994,0,-2.922,3.088,185,23.02,21.58,12.16822,0.139,48.21,55.2,32.85,34.56
"2016-08-25 17:50:00",250296,0.17,323.4,21.6,85.1,63.6195,0,863.068,0,-3.076,3.092,181,23.03,21.58,8.215725,0.127,48.21,55.26,32.85,34.57
"2016-08-25 18:00:00",250297,0.119,341,21.22,87.4,33.17159,0,863.189,0,-3.301,3.096,185,23.03,21.58,3.929754,0.115,48.21,55.26,32.85,34.57
"2016-08-25 18:10:00",250298,0.163,308.6,20.89,87.8,32.46021,0,863.3363,0,-3.111,3.096,189,23.03,21.57,4.36934,0.134,48.16,55.26,32.84,34.57
"2016-08-25 18:20:00",250299,0.044,296.6,20.6,89.1,12.78128,0,863.3609,0,-3.144,3.097,189,23.03,21.58,1.212653,0.063,48.21,55.26,32.85,34.57
"2016-08-25 18:30:00",250300,0.163,92,20.42,90.4,0.6563573,0,863.5349,0,-3.025,3.097,182,23.04,21.58,0,0,48.16,55.26,32.84,34.57
"2016-08-25 18:40:00",250301,0.14,120.2,20.23,92.9,0,0,863.6111,0,-2.849,3.096,196,23.06,21.61,0,0,48.16,55.26,32.84,34.57
"2016-08-25 18:50:00",250302,0.375,126.3,20,95.9,0,0,863.6364,0,-2.961,3.098,199,23.07,21.67,0,0,48.16,55.26,32.84,34.57
"2016-08-25 19:00:00",250303,0.232,111.3,19.87,96,0,0,863.7923,0,-2.556,3.095,201,23.07,21.71,0,0,48.16,55.26,32.84,34.57
"2016-08-25 19:10:00",250304,0.003,32.67,19.96,95.3,0,0,863.8239,0,-2.524,3.094,209,23.07,21.71,0.07958036,0,48.16,55.26,32.84,34.57
"2016-08-25 19:20:00",250305,0.077,30.58,19.84,96.3,0,0,863.8745,0,-2.716,3.097,196,23.09,21.71,0,0,48.16,55.2,32.84,34.56
"2016-08-25 19:30:00",250306,0.113,44.65,19.78,98.1,0,0,863.9861,0,-2.692,3.097,201,23.1,21.71,0.02273725,0,48.16,55.2,32.84,34.56
"2016-08-25 19:40:00",250307,0.011,50.17,19.68,100,0,0,864.0092,0,-2.747,3.098,201,23.1,21.71,0,0,48.16,55.2,32.84,34.56
"2016-08-25 19:50:00",250308,0,0,19.54,100,0,0,864.1208,0,-2.747,3.098,202,23.09,21.71,0.01136862,0,48.16,55.2,32.84,34.56
"2016-08-25 20:00:00",250309,0.048,127.5,19.53,100,0,0,864.165,0,-2.939,3.101,197,22.99,21.72,0.07958036,0,48.11,55.2,32.82,34.56
"2016-08-25 20:10:00",250310,0.144,44.37,19.45,100,0,0,864.2325,0,-3.225,3.104,196,22.98,21.76,0,0,48.11,55.2,32.82,34.56
"2016-08-25 20:20:00",250311,0.115,50.24,19.35,100,0,0,864.3189,0,-3.098,3.103,196,23.01,21.79,0,0,48.11,55.2,32.82,34.56
"2016-08-25 20:30:00",250312,0.121,151,19.16,100,0,0,864.3737,0,-3.599,3.109,191,23.02,21.81,0,0,48.11,55.15,32.82,34.55
"2016-08-25 20:40:00",250313,0.145,192.6,19.01,100,0,0,864.3673,0,-3.137,3.105,204,23.04,21.8,0.003789541,0,48.11,55.2,32.82,34.56
"2016-08-25 20:50:00",250314,0.08,171.1,19.02,100,0,0,864.3737,0,-2.676,3.101,213,23.01,21.8,0.2273725,0,48.11,55.2,32.82,34.56
"2016-08-25 21:00:00",250315,0.339,147.1,18.84,100,0,0,864.3737,0,-2.891,3.104,199,22.94,21.8,0.2084248,0,48.11,55.2,32.82,34.56
"2016-08-25 21:10:00",250316,0.54,148.7,18.82,100,0,0,864.2262,0,-2.859,3.103,218,22.93,21.8,0.2273725,0,48.11,55.2,32.82,34.56
"2016-08-25 21:20:00",250317,0.431,155.7,18.79,100,0,0,864.2957,0,-3.249,3.107,212,22.95,21.8,0.2349515,0,48.16,55.2,32.84,34.56
"2016-08-25 21:30:00",250318,0.628,144.9,18.94,99.9,0,0,864.3737,0,-3.575,3.109,197,22.9,21.8,0.4964299,0,48.11,55.2,32.82,34.56
"2016-08-25 21:40:00",250319,0.211,137.5,19.1,98.8,0,0,864.2978,0,-3.209,3.105,211,22.85,21.81,0.3334796,0,48.11,55.2,32.82,34.56
"2016-08-25 21:50:00",250320,0.213,126.4,19.01,98.1,0,0,864.1292,0,-3.249,3.107,218,22.85,21.84,0.189477,0,48.05,55.15,32.81,34.55
"2016-08-25 22:00:00",250321,0.083,143.9,18.95,100,0,0,864.125,0,-3.058,3.104,226,22.86,21.89,0.181898,0,48.11,55.15,32.82,34.55
"2016-08-25 22:10:00",250322,0.098,8.19,19.02,99.7,0,0,864.1271,0,-2.954,3.103,233,22.77,21.93,0.2387411,0,48.11,55.15,32.82,34.55
"2016-08-25 22:20:00",250323,0.133,122.5,18.93,100,0,0,864.0997,0,-2.962,3.104,226,22.74,21.97,0.1061071,0,48.11,55.15,32.82,34.55
"2016-08-25 22:30:00",250324,0.126,101.3,18.9,100,0,0,864.0156,0,-3.042,3.105,223,22.76,21.97,0.2122143,0,48.11,55.15,32.82,34.55
"2016-08-25 22:40:00",250325,0.054,71.13,18.85,100,0,0,864.1103,0,-3.32,3.107,226,22.7,21.97,0.2160038,0,48.05,55.15,32.81,34.55
"2016-08-25 22:50:00",250326,0,0,19.04,100,0,0,864.1061,0,-3.289,3.106,224,22.67,21.95,0.2273725,0,48.05,55.15,32.81,34.55
"2016-08-25 23:00:00",250327,0.001,22.01,19.02,100,0,0,863.8892,0,-3.09,3.105,254,22.67,21.94,0.2273725,0,48.05,55.09,32.81,34.53
"2016-08-25 23:10:00",250328,0.003,140.2,19.01,100,0,0,863.8682,0,-3.941,3.113,225,22.67,21.92,0.2614783,0,48.05,55.09,32.81,34.53
"2016-08-25 23:20:00",250329,0.065,38.75,18.93,100,0,0,863.8682,0,-3.996,3.114,218,22.63,21.91,0.2273725,0,48.11,55.09,32.82,34.53
"2016-08-25 23:30:00",250330,0.188,18.52,18.77,100,0,0,863.8682,0,-2.581,3.101,299,22.56,21.91,0.2273725,0,48.11,55.15,32.82,34.55
"2016-08-25 23:40:00",250331,0.014,337.5,18.72,100,0,0,863.7607,0,-1.762,3.094,330,22.58,21.9,0.2197934,0,48.05,55.09,32.81,34.53
"2016-08-25 23:50:00",250332,0.1,163.6,18.62,100,0,0,863.609,0,-3.829,3.114,208,22.59,21.9,0.231162,0,48.05,55.09,32.81,34.53
